Year,Month,Day,Hour,Minute,Value (Times are PST for temperature in C)
2013,07,16,00,00,14.00
2013,07,16,00,01,14.00
2013,07,16,00,02,14.20
2013,07,16,00,03,14.30
2013,07,16,00,04,14.50
2013,07,16,00,05,14.70
2013,07,16,00,06,14.90
2013,07,16,00,07,15.20
2013,07,16,00,08,15.40
2013,07,16,00,09,15.70
2013,07,16,00,10,15.90
2013,07,16,00,11,16.00
2013,07,16,00,12,16.10
2013,07,16,00,13,16.10
2013,07,16,00,14,16.10
2013,07,16,00,15,16.10
2013,07,16,00,16,16.10
2013,07,16,00,17,16.30
2013,07,16,00,18,16.50
2013,07,16,00,19,16.80
2013,07,16,00,20,17.00
2013,07,16,00,21,17.20
2013,07,16,00,22,17.40
2013,07,16,00,23,17.50
2013,07,16,00,24,17.60
2013,07,16,00,25,17.70
2013,07,16,00,26,17.70
2013,07,16,00,27,17.80
2013,07,16,00,28,17.80
2013,07,16,00,29,17.90
2013,07,16,00,30,17.90
2013,07,16,00,31,17.80
2013,07,16,00,32,17.70
2013,07,16,00,33,17.60
2013,07,16,00,34,17.50
2013,07,16,00,35,17.40
2013,07,16,00,36,17.30
2013,07,16,00,37,17.20
2013,07,16,00,38,17.10
2013,07,16,00,39,17.00
2013,07,16,00,40,16.90
2013,07,16,00,41,16.80
2013,07,16,00,42,16.70
2013,07,16,00,43,16.60
2013,07,16,00,44,16.60
2013,07,16,00,45,16.50
2013,07,16,00,46,16.40
2013,07,16,00,47,16.30
2013,07,16,00,48,16.20
2013,07,16,00,49,16.20
2013,07,16,00,50,16.20
2013,07,16,00,51,16.20
2013,07,16,00,52,16.20
2013,07,16,00,53,16.20
2013,07,16,00,54,16.30
2013,07,16,00,55,16.30
2013,07,16,00,56,16.30
2013,07,16,00,57,16.30
2013,07,16,00,58,16.30
2013,07,16,00,59,16.20
2013,07,16,01,00,16.20
2013,07,16,01,01,16.30
2013,07,16,01,02,16.30
2013,07,16,01,03,16.30
2013,07,16,01,04,16.30
2013,07,16,01,05,16.40
2013,07,16,01,06,16.40
2013,07,16,01,07,16.50
2013,07,16,01,08,16.70
2013,07,16,01,09,16.80
2013,07,16,01,10,16.90
2013,07,16,01,11,17.10
2013,07,16,01,12,17.30
2013,07,16,01,13,17.50
2013,07,16,01,14,17.70
2013,07,16,01,15,17.90
2013,07,16,01,16,18.00
2013,07,16,01,17,18.20
2013,07,16,01,18,18.30
2013,07,16,01,19,18.30
2013,07,16,01,20,18.30
2013,07,16,01,21,18.30
2013,07,16,01,22,18.40
2013,07,16,01,23,18.40
2013,07,16,01,24,18.40
2013,07,16,01,25,18.40
2013,07,16,01,26,18.30
2013,07,16,01,27,18.40
2013,07,16,01,28,18.40
2013,07,16,01,29,18.30
2013,07,16,01,30,18.30
2013,07,16,01,31,18.30
2013,07,16,01,32,18.30
2013,07,16,01,33,18.30
2013,07,16,01,34,18.20
2013,07,16,01,35,18.20
2013,07,16,01,36,18.20
2013,07,16,01,37,18.20
2013,07,16,01,38,18.20
2013,07,16,01,39,18.20
2013,07,16,01,40,18.20
2013,07,16,01,41,18.20
2013,07,16,01,42,18.20
2013,07,16,01,43,18.20
2013,07,16,01,44,18.20
2013,07,16,01,45,18.20
2013,07,16,01,46,18.20
2013,07,16,01,47,18.20
2013,07,16,01,48,18.20
2013,07,16,01,49,18.20
2013,07,16,01,50,18.20
2013,07,16,01,51,18.10
2013,07,16,01,52,18.10
2013,07,16,01,53,18.00
2013,07,16,01,54,17.90
2013,07,16,01,55,17.80
2013,07,16,01,56,17.70
2013,07,16,01,57,17.60
2013,07,16,01,58,17.30
2013,07,16,01,59,17.10
2013,07,16,02,00,17.00
2013,07,16,02,01,16.80
2013,07,16,02,02,16.70
2013,07,16,02,03,16.70
2013,07,16,02,04,16.60
2013,07,16,02,05,16.60
2013,07,16,02,06,16.70
2013,07,16,02,07,16.70
2013,07,16,02,08,16.70
2013,07,16,02,09,16.60
2013,07,16,02,10,16.50
2013,07,16,02,11,16.40
2013,07,16,02,12,16.30
2013,07,16,02,13,16.20
2013,07,16,02,14,16.20
2013,07,16,02,15,16.10
2013,07,16,02,16,16.00
2013,07,16,02,17,16.00
2013,07,16,02,18,15.90
2013,07,16,02,19,15.90
2013,07,16,02,20,15.80
2013,07,16,02,21,15.80
2013,07,16,02,22,15.70
2013,07,16,02,23,15.70
2013,07,16,02,24,15.60
2013,07,16,02,25,15.50
2013,07,16,02,26,15.50
2013,07,16,02,27,15.50
2013,07,16,02,28,15.40
2013,07,16,02,29,15.40
2013,07,16,02,30,15.40
2013,07,16,02,31,15.30
2013,07,16,02,32,15.30
2013,07,16,02,33,15.30
2013,07,16,02,34,15.20
2013,07,16,02,35,15.20
2013,07,16,02,36,15.10
2013,07,16,02,37,15.10
2013,07,16,02,38,15.00
2013,07,16,02,39,15.00
2013,07,16,02,40,14.90
2013,07,16,02,41,14.80
2013,07,16,02,42,14.70
2013,07,16,02,43,14.70
2013,07,16,02,44,14.60
2013,07,16,02,45,14.50
2013,07,16,02,46,14.50
2013,07,16,02,47,14.40
2013,07,16,02,48,14.30
2013,07,16,02,49,14.30
2013,07,16,02,50,14.30
2013,07,16,02,51,14.20
2013,07,16,02,52,14.10
2013,07,16,02,53,14.00
2013,07,16,02,54,14.00
2013,07,16,02,55,13.80
2013,07,16,02,56,13.70
2013,07,16,02,57,13.60
2013,07,16,02,58,13.50
2013,07,16,02,59,13.40
2013,07,16,03,00,13.30
2013,07,16,03,01,13.20
2013,07,16,03,02,13.10
2013,07,16,03,03,13.00
2013,07,16,03,04,12.90
2013,07,16,03,05,12.80
2013,07,16,03,06,12.70
2013,07,16,03,07,12.70
2013,07,16,03,08,12.60
2013,07,16,03,09,12.50
2013,07,16,03,10,12.50
2013,07,16,03,11,12.40
2013,07,16,03,12,12.40
2013,07,16,03,13,12.40
2013,07,16,03,14,12.30
2013,07,16,03,15,12.30
2013,07,16,03,16,12.30
2013,07,16,03,17,12.20
2013,07,16,03,18,12.20
2013,07,16,03,19,12.20
2013,07,16,03,20,12.20
2013,07,16,03,21,12.10
2013,07,16,03,22,12.10
2013,07,16,03,23,12.00
2013,07,16,03,24,12.00
2013,07,16,03,25,12.00
2013,07,16,03,26,11.90
2013,07,16,03,27,11.90
2013,07,16,03,28,11.90
2013,07,16,03,29,11.90
2013,07,16,03,30,11.80
2013,07,16,03,31,11.80
2013,07,16,03,32,11.80
2013,07,16,03,33,11.80
2013,07,16,03,34,11.80
2013,07,16,03,35,11.70
2013,07,16,03,36,11.70
2013,07,16,03,37,11.70
2013,07,16,03,38,11.70
2013,07,16,03,39,11.70
2013,07,16,03,40,11.60
2013,07,16,03,41,11.60
2013,07,16,03,42,11.60
2013,07,16,03,43,11.50
2013,07,16,03,44,11.50
2013,07,16,03,45,11.50
2013,07,16,03,46,11.50
2013,07,16,03,47,11.40
2013,07,16,03,48,11.40
2013,07,16,03,49,11.40
2013,07,16,03,50,11.40
2013,07,16,03,51,11.40
2013,07,16,03,52,11.40
2013,07,16,03,53,11.40
2013,07,16,03,54,11.30
2013,07,16,03,55,11.40
2013,07,16,03,56,11.30
2013,07,16,03,57,11.30
2013,07,16,03,58,11.30
2013,07,16,03,59,11.30
2013,07,16,04,00,11.30
2013,07,16,04,01,11.30
2013,07,16,04,02,11.30
2013,07,16,04,03,11.30
2013,07,16,04,04,11.30
2013,07,16,04,05,11.30
2013,07,16,04,06,11.30
2013,07,16,04,07,11.30
2013,07,16,04,08,11.30
2013,07,16,04,09,11.30
2013,07,16,04,10,11.20
2013,07,16,04,11,11.20
2013,07,16,04,12,11.20
2013,07,16,04,13,11.20
2013,07,16,04,14,11.20
2013,07,16,04,15,11.20
2013,07,16,04,16,11.20
2013,07,16,04,17,11.20
2013,07,16,04,18,11.30
2013,07,16,04,19,11.30
2013,07,16,04,20,11.30
2013,07,16,04,21,11.30
2013,07,16,04,22,11.30
2013,07,16,04,23,11.30
2013,07,16,04,24,11.30
2013,07,16,04,25,11.30
2013,07,16,04,26,11.30
2013,07,16,04,27,11.30
2013,07,16,04,28,11.20
2013,07,16,04,29,11.20
2013,07,16,04,30,11.10
2013,07,16,04,31,11.00
2013,07,16,04,32,10.90
2013,07,16,04,33,10.90
2013,07,16,04,34,10.80
2013,07,16,04,35,10.80
2013,07,16,04,36,10.70
2013,07,16,04,37,10.70
2013,07,16,04,38,10.60
2013,07,16,04,39,10.60
2013,07,16,04,40,10.60
2013,07,16,04,41,10.50
2013,07,16,04,42,10.50
2013,07,16,04,43,10.50
2013,07,16,04,44,10.40
2013,07,16,04,45,10.40
2013,07,16,04,46,10.40
2013,07,16,04,47,10.40
2013,07,16,04,48,10.40
2013,07,16,04,49,10.40
2013,07,16,04,50,10.40
2013,07,16,04,51,10.40
2013,07,16,04,52,10.40
2013,07,16,04,53,10.40
2013,07,16,04,54,10.40
2013,07,16,04,55,10.40
2013,07,16,04,56,10.40
2013,07,16,04,57,10.40
2013,07,16,04,58,10.40
2013,07,16,04,59,10.40
2013,07,16,05,00,10.40
2013,07,16,05,01,10.40
2013,07,16,05,02,10.40
2013,07,16,05,03,10.30
2013,07,16,05,04,10.30
2013,07,16,05,05,10.20
2013,07,16,05,06,10.20
2013,07,16,05,07,10.10
2013,07,16,05,08,10.10
2013,07,16,05,09,10.00
2013,07,16,05,10,10.00
2013,07,16,05,11,10.00
2013,07,16,05,12,9.90
2013,07,16,05,13,9.90
2013,07,16,05,14,9.90
2013,07,16,05,15,9.90
2013,07,16,05,16,9.90
2013,07,16,05,17,9.90
2013,07,16,05,18,9.90
2013,07,16,05,19,9.90
2013,07,16,05,20,9.90
2013,07,16,05,21,9.90
2013,07,16,05,22,9.90
2013,07,16,05,23,9.90
2013,07,16,05,24,9.90
2013,07,16,05,25,9.90
2013,07,16,05,26,9.90
2013,07,16,05,27,9.80
2013,07,16,05,28,9.80
2013,07,16,05,29,9.80
2013,07,16,05,30,9.80
2013,07,16,05,31,9.70
2013,07,16,05,32,9.70
2013,07,16,05,33,9.70
2013,07,16,05,34,9.70
2013,07,16,05,35,9.70
2013,07,16,05,36,9.70
2013,07,16,05,37,9.70
2013,07,16,05,38,9.70
2013,07,16,05,39,9.70
2013,07,16,05,40,9.70
2013,07,16,05,41,9.70
2013,07,16,05,42,9.70
2013,07,16,05,43,9.60
2013,07,16,05,44,9.60
2013,07,16,05,45,9.60
2013,07,16,05,46,9.60
2013,07,16,05,47,9.60
2013,07,16,05,48,9.70
2013,07,16,05,49,9.70
2013,07,16,05,50,9.70
2013,07,16,05,51,9.70
2013,07,16,05,52,9.70
2013,07,16,05,53,9.70
2013,07,16,05,54,9.70
2013,07,16,05,55,9.70
2013,07,16,05,56,9.70
2013,07,16,05,57,9.60
2013,07,16,05,58,9.60
2013,07,16,05,59,9.60
2013,07,16,06,00,9.60
2013,07,16,06,01,9.60
2013,07,16,06,02,9.60
2013,07,16,06,03,9.60
2013,07,16,06,04,9.60
2013,07,16,06,05,9.50
2013,07,16,06,06,9.50
2013,07,16,06,07,9.50
2013,07,16,06,08,9.50
2013,07,16,06,09,9.40
2013,07,16,06,10,9.40
2013,07,16,06,11,9.40
2013,07,16,06,12,9.40
2013,07,16,06,13,9.30
2013,07,16,06,14,9.30
2013,07,16,06,15,9.30
2013,07,16,06,16,9.30
2013,07,16,06,17,9.30
2013,07,16,06,18,9.30
2013,07,16,06,19,9.30
2013,07,16,06,20,9.30
2013,07,16,06,21,9.30
2013,07,16,06,22,9.30
2013,07,16,06,23,9.30
2013,07,16,06,24,9.30
2013,07,16,06,25,9.30
2013,07,16,06,26,9.40
2013,07,16,06,27,9.40
2013,07,16,06,28,9.40
2013,07,16,06,29,9.40
2013,07,16,06,30,9.40
2013,07,16,06,31,9.40
2013,07,16,06,32,9.40
2013,07,16,06,33,9.40
2013,07,16,06,34,9.40
2013,07,16,06,35,9.40
2013,07,16,06,36,9.50
2013,07,16,06,37,9.50
2013,07,16,06,38,9.50
2013,07,16,06,39,9.60
2013,07,16,06,40,9.60
2013,07,16,06,41,9.60
2013,07,16,06,42,9.60
2013,07,16,06,43,9.70
2013,07,16,06,44,9.70
2013,07,16,06,45,9.70
2013,07,16,06,46,9.80
2013,07,16,06,47,9.90
2013,07,16,06,48,9.90
2013,07,16,06,49,10.00
2013,07,16,06,50,10.10
2013,07,16,06,51,10.20
2013,07,16,06,52,10.20
2013,07,16,06,53,10.30
2013,07,16,06,54,10.40
2013,07,16,06,55,10.40
2013,07,16,06,56,10.50
2013,07,16,06,57,10.60
2013,07,16,06,58,10.70
2013,07,16,06,59,10.70
2013,07,16,07,00,10.80
2013,07,16,07,01,10.90
2013,07,16,07,02,11.00
2013,07,16,07,03,11.00
2013,07,16,07,04,11.10
2013,07,16,07,05,11.20
2013,07,16,07,06,11.20
2013,07,16,07,07,11.30
2013,07,16,07,08,11.40
2013,07,16,07,09,11.50
2013,07,16,07,10,11.70
2013,07,16,07,11,11.80
2013,07,16,07,12,11.90
2013,07,16,07,13,12.00
2013,07,16,07,14,12.20
2013,07,16,07,15,12.30
2013,07,16,07,16,12.40
2013,07,16,07,17,12.60
2013,07,16,07,18,12.70
2013,07,16,07,19,12.80
2013,07,16,07,20,13.00
2013,07,16,07,21,13.10
2013,07,16,07,22,13.20
2013,07,16,07,23,13.30
2013,07,16,07,24,13.40
2013,07,16,07,25,13.60
2013,07,16,07,26,13.70
2013,07,16,07,27,13.80
2013,07,16,07,28,14.00
2013,07,16,07,29,14.00
2013,07,16,07,30,14.10
2013,07,16,07,31,14.20
2013,07,16,07,32,14.30
2013,07,16,07,33,14.30
2013,07,16,07,34,14.40
2013,07,16,07,35,14.50
2013,07,16,07,36,14.60
2013,07,16,07,37,14.60
2013,07,16,07,38,14.60
2013,07,16,07,39,14.60
2013,07,16,07,40,14.70
2013,07,16,07,41,14.70
2013,07,16,07,42,14.80
2013,07,16,07,43,14.80
2013,07,16,07,44,14.80
2013,07,16,07,45,14.80
2013,07,16,07,46,14.90
2013,07,16,07,47,14.90
2013,07,16,07,48,14.90
2013,07,16,07,49,15.00
2013,07,16,07,50,15.00
2013,07,16,07,51,15.10
2013,07,16,07,52,15.20
2013,07,16,07,53,15.30
2013,07,16,07,54,15.40
2013,07,16,07,55,15.40
2013,07,16,07,56,15.50
2013,07,16,07,57,15.60
2013,07,16,07,58,15.70
2013,07,16,07,59,15.70
2013,07,16,08,00,15.80
2013,07,16,08,01,15.80
2013,07,16,08,02,15.90
2013,07,16,08,03,15.90
2013,07,16,08,04,15.90
2013,07,16,08,05,16.00
2013,07,16,08,06,16.00
2013,07,16,08,07,16.10
2013,07,16,08,08,16.10
2013,07,16,08,09,16.10
2013,07,16,08,10,16.20
2013,07,16,08,11,16.20
2013,07,16,08,12,16.30
2013,07,16,08,13,16.30
2013,07,16,08,14,16.30
2013,07,16,08,15,16.40
2013,07,16,08,16,16.40
2013,07,16,08,17,16.50
2013,07,16,08,18,16.60
2013,07,16,08,19,16.60
2013,07,16,08,20,16.70
2013,07,16,08,21,16.70
2013,07,16,08,22,16.80
2013,07,16,08,23,16.80
2013,07,16,08,24,16.80
2013,07,16,08,25,16.80
2013,07,16,08,26,16.80
2013,07,16,08,27,16.90
2013,07,16,08,28,16.90
2013,07,16,08,29,16.90
2013,07,16,08,30,17.00
2013,07,16,08,31,17.00
2013,07,16,08,32,17.10
2013,07,16,08,33,17.10
2013,07,16,08,34,17.20
2013,07,16,08,35,17.30
2013,07,16,08,36,17.40
2013,07,16,08,37,17.40
2013,07,16,08,38,17.50
2013,07,16,08,39,17.60
2013,07,16,08,40,17.60
2013,07,16,08,41,17.60
2013,07,16,08,42,17.60
2013,07,16,08,43,17.70
2013,07,16,08,44,17.70
2013,07,16,08,45,17.80
2013,07,16,08,46,17.80
2013,07,16,08,47,17.80
2013,07,16,08,48,17.90
2013,07,16,08,49,17.90
2013,07,16,08,50,18.00
2013,07,16,08,51,18.10
2013,07,16,08,52,18.10
2013,07,16,08,53,18.10
2013,07,16,08,54,18.20
2013,07,16,08,55,18.20
2013,07,16,08,56,18.30
2013,07,16,08,57,18.30
2013,07,16,08,58,18.30
2013,07,16,08,59,18.30
2013,07,16,09,00,18.40
2013,07,16,09,01,18.40
2013,07,16,09,02,18.50
2013,07,16,09,03,18.60
2013,07,16,09,04,18.60
2013,07,16,09,05,18.70
2013,07,16,09,06,18.70
2013,07,16,09,07,18.70
2013,07,16,09,08,18.80
2013,07,16,09,09,18.80
2013,07,16,09,10,18.80
2013,07,16,09,11,18.80
2013,07,16,09,12,18.80
2013,07,16,09,13,18.80
2013,07,16,09,14,18.90
2013,07,16,09,15,18.90
2013,07,16,09,16,18.90
2013,07,16,09,17,19.00
2013,07,16,09,18,19.10
2013,07,16,09,19,19.20
2013,07,16,09,20,19.20
2013,07,16,09,21,19.30
2013,07,16,09,22,19.30
2013,07,16,09,23,19.40
2013,07,16,09,24,19.40
2013,07,16,09,25,19.40
2013,07,16,09,26,19.50
2013,07,16,09,27,19.50
2013,07,16,09,28,19.60
2013,07,16,09,29,19.70
2013,07,16,09,30,19.70
2013,07,16,09,31,19.70
2013,07,16,09,32,19.80
2013,07,16,09,33,19.80
2013,07,16,09,34,19.90
2013,07,16,09,35,19.90
2013,07,16,09,36,20.00
2013,07,16,09,37,20.10
2013,07,16,09,38,20.10
2013,07,16,09,39,20.20
2013,07,16,09,40,20.30
2013,07,16,09,41,20.30
2013,07,16,09,42,20.40
2013,07,16,09,43,20.50
2013,07,16,09,44,20.60
2013,07,16,09,45,20.70
2013,07,16,09,46,20.80
2013,07,16,09,47,20.90
2013,07,16,09,48,21.00
2013,07,16,09,49,21.10
2013,07,16,09,50,21.20
2013,07,16,09,51,21.20
2013,07,16,09,52,21.30
2013,07,16,09,53,21.40
2013,07,16,09,54,21.50
2013,07,16,09,55,21.60
2013,07,16,09,56,21.60
2013,07,16,09,57,21.70
2013,07,16,09,58,21.70
2013,07,16,09,59,21.80
2013,07,16,10,00,21.80
2013,07,16,10,01,21.80
2013,07,16,10,02,21.90
2013,07,16,10,03,21.90
2013,07,16,10,04,21.90
2013,07,16,10,05,22.00
2013,07,16,10,06,22.00
2013,07,16,10,07,22.10
2013,07,16,10,08,22.10
2013,07,16,10,09,22.10
2013,07,16,10,10,22.10
2013,07,16,10,11,22.20
2013,07,16,10,12,22.20
2013,07,16,10,13,22.30
2013,07,16,10,14,22.30
2013,07,16,10,15,22.40
2013,07,16,10,16,22.50
2013,07,16,10,17,22.50
2013,07,16,10,18,22.60
2013,07,16,10,19,22.60
2013,07,16,10,20,22.70
2013,07,16,10,21,22.70
2013,07,16,10,22,22.80
2013,07,16,10,23,22.80
2013,07,16,10,24,22.90
2013,07,16,10,25,22.90
2013,07,16,10,26,22.90
2013,07,16,10,27,23.00
2013,07,16,10,28,23.00
2013,07,16,10,29,23.00
2013,07,16,10,30,23.00
2013,07,16,10,31,23.10
2013,07,16,10,32,23.10
2013,07,16,10,33,23.10
2013,07,16,10,34,23.10
2013,07,16,10,35,23.20
2013,07,16,10,36,23.10
2013,07,16,10,37,23.10
2013,07,16,10,38,23.10
2013,07,16,10,39,23.00
2013,07,16,10,40,23.00
2013,07,16,10,41,23.00
2013,07,16,10,42,23.00
2013,07,16,10,43,23.10
2013,07,16,10,44,23.10
2013,07,16,10,45,23.20
2013,07,16,10,46,23.20
2013,07,16,10,47,23.20
2013,07,16,10,48,23.30
2013,07,16,10,49,23.30
2013,07,16,10,50,23.30
2013,07,16,10,51,23.30
2013,07,16,10,52,23.30
2013,07,16,10,53,23.30
2013,07,16,10,54,23.30
2013,07,16,10,55,23.30
2013,07,16,10,56,23.40
2013,07,16,10,57,23.50
2013,07,16,10,58,23.50
2013,07,16,10,59,23.60
2013,07,16,11,00,23.60
2013,07,16,11,01,23.70
2013,07,16,11,02,23.80
2013,07,16,11,03,23.80
2013,07,16,11,04,23.80
2013,07,16,11,05,23.90
2013,07,16,11,06,24.00
2013,07,16,11,07,24.10
2013,07,16,11,08,24.10
2013,07,16,11,09,24.20
2013,07,16,11,10,24.30
2013,07,16,11,11,24.30
2013,07,16,11,12,24.40
2013,07,16,11,13,24.50
2013,07,16,11,14,24.50
2013,07,16,11,15,24.50
2013,07,16,11,16,24.50
2013,07,16,11,17,24.60
2013,07,16,11,18,24.50
2013,07,16,11,19,24.50
2013,07,16,11,20,24.50
2013,07,16,11,21,24.60
2013,07,16,11,22,24.60
2013,07,16,11,23,24.60
2013,07,16,11,24,24.60
2013,07,16,11,25,24.50
2013,07,16,11,26,24.50
2013,07,16,11,27,24.40
2013,07,16,11,28,24.40
2013,07,16,11,29,24.40
2013,07,16,11,30,24.40
2013,07,16,11,31,24.50
2013,07,16,11,32,24.60
2013,07,16,11,33,24.60
2013,07,16,11,34,24.60
2013,07,16,11,35,24.60
2013,07,16,11,36,24.60
2013,07,16,11,37,24.70
2013,07,16,11,38,24.70
2013,07,16,11,39,24.60
2013,07,16,11,40,24.60
2013,07,16,11,41,24.60
2013,07,16,11,42,24.60
2013,07,16,11,43,24.60
2013,07,16,11,44,24.70
2013,07,16,11,45,24.70
2013,07,16,11,46,24.70
2013,07,16,11,47,24.80
2013,07,16,11,48,24.80
2013,07,16,11,49,24.90
2013,07,16,11,50,25.00
2013,07,16,11,51,25.10
2013,07,16,11,52,25.10
2013,07,16,11,53,25.20
2013,07,16,11,54,25.20
2013,07,16,11,55,25.20
2013,07,16,11,56,25.20
2013,07,16,11,57,25.20
2013,07,16,11,58,25.30
2013,07,16,11,59,25.40
2013,07,16,12,00,25.40
2013,07,16,12,01,25.40
2013,07,16,12,02,25.50
2013,07,16,12,03,25.60
2013,07,16,12,04,25.60
2013,07,16,12,05,25.70
2013,07,16,12,06,25.70
2013,07,16,12,07,25.70
2013,07,16,12,08,25.70
2013,07,16,12,09,25.70
2013,07,16,12,10,25.80
2013,07,16,12,11,25.90
2013,07,16,12,12,26.00
2013,07,16,12,13,26.10
2013,07,16,12,14,26.20
2013,07,16,12,15,26.30
2013,07,16,12,16,26.30
2013,07,16,12,17,26.40
2013,07,16,12,18,26.40
2013,07,16,12,19,26.40
2013,07,16,12,20,26.40
2013,07,16,12,21,26.40
2013,07,16,12,22,26.40
2013,07,16,12,23,26.40
2013,07,16,12,24,26.50
2013,07,16,12,25,26.50
2013,07,16,12,26,26.60
2013,07,16,12,27,26.70
2013,07,16,12,28,26.80
2013,07,16,12,29,26.80
2013,07,16,12,30,26.90
2013,07,16,12,31,27.00
2013,07,16,12,32,27.10
2013,07,16,12,33,27.20
2013,07,16,12,34,27.30
2013,07,16,12,35,27.40
2013,07,16,12,36,27.50
2013,07,16,12,37,27.50
2013,07,16,12,38,27.40
2013,07,16,12,39,27.30
2013,07,16,12,40,27.20
2013,07,16,12,41,27.20
2013,07,16,12,42,27.10
2013,07,16,12,43,27.10
2013,07,16,12,44,27.20
2013,07,16,12,45,27.20
2013,07,16,12,46,27.30
2013,07,16,12,47,27.30
2013,07,16,12,48,27.20
2013,07,16,12,49,27.10
2013,07,16,12,50,27.10
2013,07,16,12,51,27.10
2013,07,16,12,52,27.10
2013,07,16,12,53,27.00
2013,07,16,12,54,27.00
2013,07,16,12,55,27.00
2013,07,16,12,56,27.00
2013,07,16,12,57,27.00
2013,07,16,12,58,27.00
2013,07,16,12,59,27.00
2013,07,16,13,00,27.00
2013,07,16,13,01,27.10
2013,07,16,13,02,27.20
2013,07,16,13,03,27.20
2013,07,16,13,04,27.30
2013,07,16,13,05,27.40
2013,07,16,13,06,27.50
2013,07,16,13,07,27.50
2013,07,16,13,08,27.60
2013,07,16,13,09,27.70
2013,07,16,13,10,27.70
2013,07,16,13,11,27.80
2013,07,16,13,12,27.80
2013,07,16,13,13,27.90
2013,07,16,13,14,28.00
2013,07,16,13,15,28.10
2013,07,16,13,16,28.00
2013,07,16,13,17,28.10
2013,07,16,13,18,28.10
2013,07,16,13,19,28.00
2013,07,16,13,20,27.90
2013,07,16,13,21,27.80
2013,07,16,13,22,27.60
2013,07,16,13,23,27.60
2013,07,16,13,24,27.60
2013,07,16,13,25,27.60
2013,07,16,13,26,27.70
2013,07,16,13,27,27.80
2013,07,16,13,28,27.90
2013,07,16,13,29,27.90
2013,07,16,13,30,28.00
2013,07,16,13,31,28.00
2013,07,16,13,32,28.10
2013,07,16,13,33,28.20
2013,07,16,13,34,28.20
2013,07,16,13,35,28.20
2013,07,16,13,36,28.20
2013,07,16,13,37,28.20
2013,07,16,13,38,28.20
2013,07,16,13,39,28.30
2013,07,16,13,40,28.30
2013,07,16,13,41,28.20
2013,07,16,13,42,28.00
2013,07,16,13,43,27.90
2013,07,16,13,44,27.90
2013,07,16,13,45,27.80
2013,07,16,13,46,27.80
2013,07,16,13,47,27.80
2013,07,16,13,48,27.70
2013,07,16,13,49,27.60
2013,07,16,13,50,27.60
2013,07,16,13,51,27.50
2013,07,16,13,52,27.50
2013,07,16,13,53,27.60
2013,07,16,13,54,27.70
2013,07,16,13,55,27.70
2013,07,16,13,56,27.80
2013,07,16,13,57,27.80
2013,07,16,13,58,27.90
2013,07,16,13,59,27.90
2013,07,16,14,00,27.90
2013,07,16,14,01,27.90
2013,07,16,14,02,27.90
2013,07,16,14,03,28.00
2013,07,16,14,04,28.00
2013,07,16,14,05,28.00
2013,07,16,14,06,28.00
2013,07,16,14,07,28.00
2013,07,16,14,08,28.10
2013,07,16,14,09,28.10
2013,07,16,14,10,28.30
2013,07,16,14,11,28.30
2013,07,16,14,12,28.40
2013,07,16,14,13,28.50
2013,07,16,14,14,28.50
2013,07,16,14,15,28.50
2013,07,16,14,16,28.50
2013,07,16,14,17,28.60
2013,07,16,14,18,28.60
2013,07,16,14,19,28.60
2013,07,16,14,20,28.60
2013,07,16,14,21,28.60
2013,07,16,14,22,28.70
2013,07,16,14,23,28.70
2013,07,16,14,24,28.70
2013,07,16,14,25,28.70
2013,07,16,14,26,28.70
2013,07,16,14,27,28.70
2013,07,16,14,28,28.80
2013,07,16,14,29,28.80
2013,07,16,14,30,28.80
2013,07,16,14,31,28.80
2013,07,16,14,32,28.70
2013,07,16,14,33,28.70
2013,07,16,14,34,28.70
2013,07,16,14,35,28.70
2013,07,16,14,36,28.70
2013,07,16,14,37,28.80
2013,07,16,14,38,28.90
2013,07,16,14,39,28.90
2013,07,16,14,40,29.00
2013,07,16,14,41,29.10
2013,07,16,14,42,29.10
2013,07,16,14,43,29.30
2013,07,16,14,44,29.30
2013,07,16,14,45,29.30
2013,07,16,14,46,29.40
2013,07,16,14,47,29.40
2013,07,16,14,48,29.40
2013,07,16,14,49,29.40
2013,07,16,14,50,29.40
2013,07,16,14,51,29.40
2013,07,16,14,52,29.30
2013,07,16,14,53,29.30
2013,07,16,14,54,29.40
2013,07,16,14,55,29.40
2013,07,16,14,56,29.40
2013,07,16,14,57,29.40
2013,07,16,14,58,29.40
2013,07,16,14,59,29.50
2013,07,16,15,00,29.50
2013,07,16,15,01,29.70
2013,07,16,15,02,29.70
2013,07,16,15,03,29.70
2013,07,16,15,04,29.60
2013,07,16,15,05,29.50
2013,07,16,15,06,29.40
2013,07,16,15,07,29.40
2013,07,16,15,08,29.30
2013,07,16,15,09,29.40
2013,07,16,15,10,29.40
2013,07,16,15,11,29.50
2013,07,16,15,12,29.60
2013,07,16,15,13,29.60
2013,07,16,15,14,29.60
2013,07,16,15,15,29.60
2013,07,16,15,16,29.60
2013,07,16,15,17,29.60
2013,07,16,15,18,29.70
2013,07,16,15,19,29.70
2013,07,16,15,20,29.70
2013,07,16,15,21,29.80
2013,07,16,15,22,29.80
2013,07,16,15,23,29.80
2013,07,16,15,24,29.80
2013,07,16,15,25,29.70
2013,07,16,15,26,29.60
2013,07,16,15,27,29.60
2013,07,16,15,28,29.60
2013,07,16,15,29,29.60
2013,07,16,15,30,29.60
2013,07,16,15,31,29.60
2013,07,16,15,32,29.50
2013,07,16,15,33,29.40
2013,07,16,15,34,29.40
2013,07,16,15,35,29.40
2013,07,16,15,36,29.30
2013,07,16,15,37,29.30
2013,07,16,15,38,29.30
2013,07,16,15,39,29.30
2013,07,16,15,40,29.20
2013,07,16,15,41,29.20
2013,07,16,15,42,29.20
2013,07,16,15,43,29.30
2013,07,16,15,44,29.30
2013,07,16,15,45,29.30
2013,07,16,15,46,29.20
2013,07,16,15,47,29.20
2013,07,16,15,48,29.20
2013,07,16,15,49,29.10
2013,07,16,15,50,29.10
2013,07,16,15,51,29.10
2013,07,16,15,52,29.00
2013,07,16,15,53,29.00
2013,07,16,15,54,29.10
2013,07,16,15,55,29.10
2013,07,16,15,56,29.10
2013,07,16,15,57,29.20
2013,07,16,15,58,29.30
2013,07,16,15,59,29.40
2013,07,16,16,00,29.40
2013,07,16,16,01,29.40
2013,07,16,16,02,29.50
2013,07,16,16,03,29.50
2013,07,16,16,04,29.60
2013,07,16,16,05,29.60
2013,07,16,16,06,29.50
2013,07,16,16,07,29.50
2013,07,16,16,08,29.50
2013,07,16,16,09,29.50
2013,07,16,16,10,29.50
2013,07,16,16,11,29.40
2013,07,16,16,12,29.40
2013,07,16,16,13,29.40
2013,07,16,16,14,29.40
2013,07,16,16,15,29.30
2013,07,16,16,16,29.30
2013,07,16,16,17,29.30
2013,07,16,16,18,29.20
2013,07,16,16,19,29.20
2013,07,16,16,20,29.20
2013,07,16,16,21,29.30
2013,07,16,16,22,29.30
2013,07,16,16,23,29.30
2013,07,16,16,24,29.30
2013,07,16,16,25,29.20
2013,07,16,16,26,29.20
2013,07,16,16,27,29.10
2013,07,16,16,28,29.00
2013,07,16,16,29,29.00
2013,07,16,16,30,28.90
2013,07,16,16,31,28.90
2013,07,16,16,32,28.80
2013,07,16,16,33,28.80
2013,07,16,16,34,28.70
2013,07,16,16,35,28.60
2013,07,16,16,36,28.60
2013,07,16,16,37,28.50
2013,07,16,16,38,28.40
2013,07,16,16,39,28.40
2013,07,16,16,40,28.40
2013,07,16,16,41,28.40
2013,07,16,16,42,28.40
2013,07,16,16,43,28.40
2013,07,16,16,44,28.50
2013,07,16,16,45,28.50
2013,07,16,16,46,28.50
2013,07,16,16,47,28.50
2013,07,16,16,48,28.50
2013,07,16,16,49,28.50
2013,07,16,16,50,28.60
2013,07,16,16,51,28.60
2013,07,16,16,52,28.60
2013,07,16,16,53,28.60
2013,07,16,16,54,28.60
2013,07,16,16,55,28.60
2013,07,16,16,56,28.70
2013,07,16,16,57,28.70
2013,07,16,16,58,28.70
2013,07,16,16,59,28.70
2013,07,16,17,00,28.80
2013,07,16,17,01,28.80
2013,07,16,17,02,28.80
2013,07,16,17,03,28.90
2013,07,16,17,04,28.90
2013,07,16,17,05,28.90
2013,07,16,17,06,28.90
2013,07,16,17,07,28.90
2013,07,16,17,08,28.90
2013,07,16,17,09,28.90
2013,07,16,17,10,28.90
2013,07,16,17,11,28.90
2013,07,16,17,12,28.90
2013,07,16,17,13,29.00
2013,07,16,17,14,29.00
2013,07,16,17,15,29.10
2013,07,16,17,16,29.10
2013,07,16,17,17,29.20
2013,07,16,17,18,29.30
2013,07,16,17,19,29.30
2013,07,16,17,20,29.40
2013,07,16,17,21,29.40
2013,07,16,17,22,29.40
2013,07,16,17,23,29.40